Location: Chuathbaluk
(61.5726°N, 159.2454°W)
Time: 04:14:32
(UTC+00:00)

Explorer 7 - Pass Details

Date: 07 December 2021
Orbit: 483 x 674 km, 50.3° (Epoch: 25 January)

Event Time Altitude Azimuth Distance (km) Brightness Sun altitude
Rises 18:21:08 0° 248° (WSW) 2,764 10.1 -7.6°
Reaches altitude 10° 18:24:06 10° 228° (SW) 1,824 9.4 -7.3°
Maximum altitude 18:26:42 16° 189° (S) 1,427 9.3 -7.1°
Drops below altitude 10° 18:29:14 10° 149° (SSE) 1,755 10.7 -6.8°
Sets 18:32:00 0° 128° (SE) 2,609 13.1 -6.6°
